This is the latest recevied weather packets stored in our database for station/object OE6ACM-10. If no packets are shown the sender has not sent any weather packets the latest 10 day(s).
| Time | Temp. | Humidity | Pressure | Rain* | Wind** | Luminosity | Snow |
|---|---|---|---|---|---|---|---|
| 1777512225 | 11.67° C | 90% | 935.5 hPa | - | - | - | - |
| 1777511925 | 11.67° C | 94% | 935.5 hPa | - | - | - | - |
| 1777511625 | 11.67° C | 91% | 935.4 hPa | - | - | - | - |
| 1777511325 | 12.22° C | 86% | 935.3 hPa | - | - | - | - |
| 1777511025 | 12.22° C | 87% | 935.3 hPa | - | - | - | - |
| 1777510725 | 11.67° C | 87% | 935.2 hPa | - | - | - | - |
| 1777510425 | 12.22° C | 91% | 935.2 hPa | - | - | - | - |
| 1777510125 | 12.22° C | 94% | 935.2 hPa | - | - | - | - |
| 1777509825 | 12.22° C | 98% | 935.3 hPa | - | - | - | - |
| 1777509525 | 12.22° C | 99% | 935.3 hPa | - | - | - | - |
| 1777509225 | 12.78° C | 100% | 935.2 hPa | - | - | - | - |
| 1777508925 | 12.78° C | 96% | 935.2 hPa | - | - | - | - |
| 1777508625 | 13.33° C | 91% | 935.2 hPa | - | - | - | - |
| 1777508325 | 13.33° C | 97% | 935.2 hPa | - | - | - | - |
| 1777508025 | 13.33° C | 98% | 935.2 hPa | - | - | - | - |
| 1777507725 | 13.33° C | 96% | 935.1 hPa | - | - | - | - |
| 1777507425 | 13.89° C | 97% | 935.1 hPa | - | - | - | - |
| 1777507125 | 13.89° C | 94% | 935 hPa | - | - | - | - |
| 1777506825 | 13.89° C | 97% | 935.1 hPa | - | - | - | - |
| 1777506525 | 13.89° C | 100% | 935 hPa | - | - | - | - |
| 1777506225 | 13.89° C | 100% | 935 hPa | - | - | - | - |
| 1777505925 | 13.89° C | 100% | 935 hPa | - | - | - | - |
| 1777505625 | 14.44° C | 100% | 934.9 hPa | - | - | - | - |
| 1777505325 | 14.44° C | 100% | 934.9 hPa | - | - | - | - |
| 1777505025 | 14.44° C | 100% | 934.8 hPa | - | - | - | - |
* Rain since midnight (hover to see other rain measurements)
** Current wind speed in m/s (hover to see current wind gust speed)